Location: Fontevrault
(47.1823°N, 0.0493°E)
Time: 03:57:35
(UTC+00:00)

Cosmos 1459 Rocket - Pass Details

Date: 22 October 2021
Orbit: 936 x 1000 km, 83.0° (Epoch: 01 December)

Event Time Altitude Azimuth Distance (km) Brightness Sun altitude
Rises 19:14:04 0° 171° (S) 3,666 6.8 -23.5°
Enters shadow 19:15:10 - 169° (S) 3,254 6.5 -23.7°
Exits shadow 19:24:19 41° 45° (NE) 1,355 4.4 -25.2°
Drops below altitude 10° 19:28:34 10° 17° (NNE) 2,689 6.2 -25.9°
Sets 19:31:06 0° 13° (NNE) 3,631 7.0 -26.4°
